Location: Passau
(48.5830°N, 13.4830°E)
Time: 20:13:13
(UTC+02:00)

S-56A Canister/Altair - Pass Details

Date: 26 May 2024
Orbit: 637 x 2489 km, 38.9° (Epoch: 15 June)

Event Time Altitude Azimuth Distance (km) Brightness Sun altitude
Rises 06:55:27 0° 238° (WSW) 6,050 11.5 14.5°
Reaches altitude 10° 06:59:52 10° 233° (SW) 4,900 11.1 15.2°
Maximum altitude 07:12:11 45° 168° (SSE) 2,399 10.3 17.2°
Drops below altitude 10° 07:21:00 10° 100° (E) 3,552 12.5 18.6°
Sets 07:23:41 0° 93° (E) 4,297 12.8 19.1°
